Location: ?
(35.4141°N, 139.3939°E)
Time: 17:54:12
(UTC+00:00)

Daily predictions for brighter satellites

Satellite Brightness Start Highest point End
(mag) Time Altitude Azimuth Time Altitude Azimuth Time Altitude Azimuth
Cosmos 2360 Rocket 4.0 17:52:17 27° E 17:52:17 27° E 17:55:48 10° ESE
Kakehashi 4.4 18:14:18 58° SSE 18:14:18 58° SSE 18:26:49 10° ESE
ALOS 4.2 18:11:48 10° NE 18:15:38 25° E 18:15:58 24° ESE
Cosmos 2333 Rocket 4.4 18:13:43 10° N 18:18:10 22° ENE 18:22:36 10° ESE
Lacrosse 4 Rocket 3.7 18:26:47 21° ESE 18:26:47 21° ESE 18:28:28 10° SE
Lacrosse 5 3.9 18:23:53 21° NNE 18:25:21 24° NE 18:29:26 10° E
Cosmos 2219 Rocket 4.2 18:30:01 10° N 18:34:41 26° ENE 18:39:19 10° ESE
H-2A R/B 4.1 18:29:36 43° WSW 18:37:34 74° S 18:44:11 10° E
CZ-2C R/B 3.8 18:42:54 10° N 18:45:05 27° N 18:45:05 27° N
NOSS 3-2 (A) 4.4 18:40:50 10° NNW 18:48:39 69° ENE 18:57:18 10° SE
ATLAS 5 CENTAUR R/B 2.4 18:51:32 43° ENE 18:51:32 43° ENE 18:54:37 10° NE
Delta 2 Rocket 3.8 18:54:05 68° E 18:54:05 68° E 18:58:32 10° E
Cosmos 1805 Rocket 4.2 18:49:15 10° N 18:53:38 54° E 18:57:58 10° SSE
Landsat 5 4.3 18:50:59 10° SE 18:54:37 44° ENE 18:58:18 10° N
Cosmos 1709 Rocket 4.0 18:51:11 10° N 18:57:36 85° E 19:03:57 10° S
GPS 2-04 Rocket1 3.6 19:01:41 43° E 19:01:41 43° E 19:04:20 10° E
CENTAUR R/B 3.8 18:52:37 10° NNW 19:00:51 58° NE 19:09:36 10° SE
Cosmos 1484 Rocket 3.3 19:00:17 10° NNE 19:03:20 53° NE 19:03:20 53° NE
Cosmos 2344 4.1 19:06:38 35° WNW 19:07:33 36° NW 19:14:35 10° NNE
FENGYUN 3A 3.5 19:04:11 10° N 19:09:38 82° WNW 19:12:13 32° SSW
USA 234 3.1 19:03:43 10° SE 19:10:15 76° SW 19:14:29 24° NW
Cosmos 2322 4.0 19:05:05 10° NNW 19:10:45 66° ENE 19:16:21 10° SSE
Sich 1 3.4 19:06:56 10° N 19:11:19 65° E 19:15:38 10° SSE
NOSS 3-4 (A) 3.2 19:19:06 39° SW 19:21:19 72° WNW 19:27:26 10° NNE
NOSS 3-4 (C) 3.2 19:19:10 39° SW 19:21:25 72° WNW 19:27:31 10° NNE
CZ-4C R/B 2.0 19:24:12 47° W 19:25:03 53° NW 19:30:28 10° NNE
Meteor 2-17 Rocket 4.3 19:20:02 10° NNW 19:26:02 67° W 19:32:01 10° S
NOSS 3-2 (C) 4.3 19:22:34 10° NNW 19:30:28 77° ENE 19:39:12 10° SE
Meteor 1-20 Rocket 4.4 19:25:54 10° N 19:31:39 78° E 19:37:27 10° SSE
Chunghua 1 4.4 19:31:21 60° W 19:31:59 85° S 19:35:49 10° E
Cosmos 909 Rocket 4.4 19:30:13 31° WSW 19:32:51 46° WNW 19:38:52 10° NNE
H-2A R/B 2.0 19:28:48 10° SSE 19:33:03 81° ENE 19:37:14 10° N
Cosmos 2360 Rocket 2.7 19:34:19 33° W 19:34:51 33° WSW 19:39:51 10° SSW
CZ-4B R/B 3.7 19:31:19 10° NNE 19:34:59 75° ESE 19:38:36 10° S
Cosmos 1151 Rocket 2.9 19:31:03 10° S 19:35:22 87° E 19:39:42 10° N
Geosat 4.4 19:30:53 10° N 19:35:35 41° WNW 19:37:04 33° W
ATLAS 2AS CENTAUR R/B 3.0 19:28:28 11° SSW 19:36:14 88° WNW 19:44:09 10° NNE
Milstar 3 Cent rocket 2.7 19:38:25 26° SW 19:40:23 37° S 19:44:42 10° ESE
Cosmos 2333 4.2 19:36:05 10° NNW 19:41:45 58° WSW 19:47:24 10° S
Cosmos 2237 Rocket 4.3 19:37:05 10° N 19:41:55 28° ENE 19:46:41 10° ESE
Cosmos 1602 4.3 19:39:04 10° N 19:42:57 61° E 19:46:47 10° SSE
BREEZE-M DEB (TANK) 2.5 19:45:43 42° W 19:46:25 60° SW 19:51:39 10° SE
SWAS 4.5 19:42:13 10° NNW 19:46:33 84° ENE 19:50:51 10° SSE
Cosmos 1633 Rocket 3.1 19:44:27 10° N 19:48:51 84° E 19:53:12 10° S
Cosmos 407 Rocket 3.6 19:44:50 16° SW 19:48:51 51° WNW 19:53:52 10° N
NOSS 7 (H) 4.3 19:46:54 23° SW 19:49:10 71° WNW 19:52:18 10° NNE
CZ-3 R/B 3.3 19:35:09 17° WSW 19:51:43 51° S 19:58:06 10° ESE
ALOS 3.2 19:49:01 10° NNW 19:52:57 28° WNW 19:54:29 23° WSW
OAO 3 Rocket 3.2 19:51:11 25° W 19:54:02 85° S 19:58:52 10° E
Cosmos 2227 Rocket 3.1 19:49:42 10° S 19:55:09 51° ESE 20:00:38 10° NNE
Cosmos 1933 4.3 19:58:40 22° WSW 19:59:49 25° WNW 20:03:13 10° NNW
Cosmos 1190 Rocket 4.1 19:54:57 10° SSW 20:00:07 54° WNW 20:05:20 10° N
Cosmos 2333 Rocket 2.4 19:57:09 10° NW 20:02:40 48° WSW 20:08:08 10° S
Lacrosse 4 Rocket 2.9 20:03:15 18° WSW 20:03:15 18° WSW 20:05:45 10° SSW
CZ-2C R/B 3.5 19:59:44 10° SSW 20:03:06 22° SSE 20:06:31 10° E
Sakura Rocket 4.2 20:01:59 16° WSW 20:04:07 24° SSW 20:07:11 10° SE
CSL-04 DEB 4.4 20:00:32 10° SSE 20:04:31 81° ENE 20:08:27 10° N
H-2A R/B 2.9 20:02:36 10° NNE 20:06:31 77° E 20:10:21 10° S
Cosmos 1812 3.2 20:02:44 10° S 20:06:32 65° E 20:10:20 10° NNE
Cosmos 676 Rocket 4.0 20:01:54 10° SSW 20:07:13 81° WNW 20:12:32 10° NNE
Cosmos 1242 Rocket 2.9 20:04:32 10° S 20:07:55 62° E 20:11:22 10° NNE
Lacrosse 5 2.0 20:03:38 10° NW 20:08:35 55° SW 20:13:30 10° SSE
RESURS DK-1 2.5 20:05:49 10° SSW 20:09:55 79° ESE 20:14:02 10° NNE
Cosmos 2297 Rocket 2.2 20:04:42 10° SSW 20:10:21 90° WNW 20:16:02 10° NNE
USA 238 DEB 4.2 20:03:24 10° NW 20:10:24 47° WSW 20:17:35 10° S
USA 238 4.2 20:03:30 10° NW 20:10:30 47° WSW 20:17:43 10° S
Cosmos 192 4.4 20:07:38 10° NNW 20:12:28 54° WSW 20:17:17 10° S
ATLAS 3B R/B 4.4 20:08:43 10° NNW 20:15:06 35° NE 20:21:41 10° ESE
Meteor 1-31 Rocket 3.6 20:12:54 10° N 20:16:16 29° WNW 20:19:36 10° SW
Cosmos 1328 Rocket 4.1 20:12:34 10° SSW 20:16:31 36° W 20:20:30 10° NNW
Cosmos 2074 Rocket 4.0 20:12:05 10° NNW 20:18:08 57° W 20:24:10 10° SSW
Cosmos 1515 Rocket 3.5 20:13:55 10° SSW 20:18:13 66° W 20:22:33 10° N
Cosmos 2219 Rocket 2.6 20:13:27 10° NW 20:18:42 40° WSW 20:23:55 10° S
ISS -1.7 20:17:31 10° NNW 20:20:23 26° NNE 20:23:16 10° E
Envisat 3.1 20:18:59 10° NNE 20:24:05 85° ESE 20:29:09 10° SSW
Cosmos 2154 Rocket 4.0 20:18:56 10° N 20:25:11 80° W 20:31:27 10° S
Cosmos 1980 4.0 20:21:15 10° NNW 20:26:55 72° ENE 20:32:34 10° SSE
Cosmos 1140 Rocket 4.5 20:23:05 10° WSW 20:27:25 26° WNW 20:31:46 10° N
COSMO-SKYMED 1 2.9 20:27:49 10° S 20:31:55 42° W 20:36:04 10° NNW
Cosmos 1470 Rocket 3.7 20:28:57 10° NNW 20:33:10 52° W 20:37:20 10° S
COSMOS 2428 3.3 20:28:39 10° NW 20:33:47 35° WSW 20:38:54 10° SSW
Cosmos 1437 Rocket 4.3 20:32:01 10° WSW 20:34:50 18° WNW 20:37:38 10° NNW
ATLAS 5 CENTAUR R/B 3.4 20:33:54 10° WNW 20:35:39 12° NW 20:37:30 10° NNW
Delta 2 Rocket 4.0 20:31:12 10° W 20:35:57 62° SSW 20:41:15 10° ESE
Lacrosse 5 rocket 4.3 20:32:58 10° SSE 20:36:07 19° ESE 20:39:20 10° ENE
SJ-7 4.3 20:32:43 10° N 20:36:45 73° WNW 20:40:47 10° SSW
CZ-4B R/B 3.6 20:34:05 10° N 20:38:21 41° WNW 20:42:32 10° SW
SeaSat 1 2.6 20:33:36 10° S 20:38:23 54° WSW 20:43:14 10° NW
deb Chang Zheng 4 3.9 20:35:28 10° N 20:39:34 45° WNW 20:43:41 10° SW
GPS 2-04 Rocket1 2.6 20:36:16 10° W 20:39:59 77° S 20:43:53 10° ESE
MOS 1 Rocket 3.9 20:37:02 10° SSW 20:40:53 30° W 20:44:52 10° NNW
